Hourly Weather Çelikhan

Today, 12 June, Saturday

Time Temperature Precipitation Wind Pressure Humidity
00:00 +19°C° 0 mm 1 mps 640 mmHg 49%
01:00 +18°C° 0 mm 1 mps 640 mmHg 50%
02:00 +18°C° 0 mm 1 mps 640 mmHg 51%
03:00 +16°C° 0 mm 1 mps 640 mmHg 51%
04:00 +16°C° 0 mm 1 mps 640 mmHg 51%
05:00 +18°C° 0 mm 1 mps 640 mmHg 50%
06:00 +18°C° 0 mm 1 mps 640 mmHg 50%
07:00 +19°C° 0 mm 1 mps 641 mmHg 46%
08:00 +21°C° 0 mm 1 mps 641 mmHg 42%
09:00 +22°C° 0 mm 1 mps 642 mmHg 38%
10:00 +24°C° 0 mm 2 mps 642 mmHg 36%
11:00 +25°C° 0 mm 3 mps 642 mmHg 34%
12:00 +26°C° 0 mm 4 mps 642 mmHg 32%
13:00 +25°C° 0 mm 3 mps 642 mmHg 32%
14:00 +25°C° 0 mm 3 mps 642 mmHg 32%
15:00 +25°C° 0 mm 2 mps 642 mmHg 34%
16:00 +24°C° 0.1 mm 3 mps 642 mmHg 36%
17:00 +24°C° 0.1 mm 3 mps 641 mmHg 37%
18:00 +24°C° 0.1 mm 3 mps 641 mmHg 39%
19:00 +21°C° 0 mm 3 mps 641 mmHg 44%
20:00 +20°C° 0 mm 2 mps 641 mmHg 48%
21:00 +19°C° 0 mm 2 mps 641 mmHg 53%
22:00 +18°C° 0 mm 2 mps 641 mmHg 54%
23:00 +17°C° 0 mm 2 mps 641 mmHg 55%

Tomorrow, 13 June, Sunday

Time Temperature Precipitation Wind Pressure Humidity
00:00 +17°C° 0 mm 2 mps 641 mmHg 57%
01:00 +17°C° 0 mm 2 mps 641 mmHg 58%
02:00 +16°C° 0 mm 2 mps 641 mmHg 59%
03:00 +16°C° 0 mm 2 mps 641 mmHg 59%
04:00 +16°C° 0 mm 2 mps 641 mmHg 58%
05:00 +16°C° 0 mm 2 mps 641 mmHg 57%
06:00 +16°C° 0 mm 2 mps 641 mmHg 56%
07:00 +18°C° 0 mm 2 mps 642 mmHg 50%
08:00 +19°C° 0 mm 2 mps 642 mmHg 43%
09:00 +21°C° 0 mm 2 mps 643 mmHg 36%
10:00 +23°C° 0 mm 2 mps 643 mmHg 33%
11:00 +24°C° 0 mm 2 mps 643 mmHg 30%
12:00 +25°C° 0 mm 2 mps 643 mmHg 27%
13:00 +26°C° 0 mm 3 mps 643 mmHg 25%
14:00 +27°C° 0 mm 3 mps 643 mmHg 23%
15:00 +28°C° 0 mm 4 mps 643 mmHg 22%
16:00 +28°C° 0 mm 4 mps 643 mmHg 22%
17:00 +27°C° 0 mm 3 mps 642 mmHg 22%
18:00 +27°C° 0 mm 3 mps 642 mmHg 22%
19:00 +25°C° 0 mm 3 mps 642 mmHg 26%
20:00 +23°C° 0 mm 2 mps 641 mmHg 30%
21:00 +22°C° 0 mm 1 mps 641 mmHg 35%
22:00 +21°C° 0 mm 1 mps 641 mmHg 37%
23:00 +20°C° 0 mm 1 mps 641 mmHg 39%

Day after tomorrow, 14 June, Monday

Time Temperature Precipitation Wind Pressure Humidity
00:00 +17°C° 0 mm 0 mps 640 mmHg 42%
01:00 +17°C° 0 mm 0 mps 640 mmHg 43%
02:00 +16°C° 0 mm 0 mps 640 mmHg 44%
03:00 +18°C° 0 mm 1 mps 639 mmHg 46%
04:00 +18°C° 0 mm 1 mps 640 mmHg 47%
05:00 +18°C° 0 mm 1 mps 640 mmHg 48%
06:00 +18°C° 0 mm 1 mps 640 mmHg 49%
07:00 +20°C° 0 mm 1 mps 641 mmHg 44%
08:00 +21°C° 0 mm 2 mps 641 mmHg 39%
09:00 +23°C° 0 mm 2 mps 642 mmHg 34%
10:00 +24°C° 0 mm 3 mps 642 mmHg 31%
11:00 +25°C° 0 mm 4 mps 642 mmHg 28%
12:00 +26°C° 0 mm 5 mps 642 mmHg 25%
13:00 +27°C° 0 mm 5 mps 642 mmHg 24%
14:00 +27°C° 0 mm 6 mps 642 mmHg 23%
15:00 +28°C° 0 mm 7 mps 642 mmHg 22%
16:00 +27°C° 0 mm 7 mps 641 mmHg 21%
17:00 +27°C° 0 mm 8 mps 641 mmHg 21%
18:00 +26°C° 0 mm 8 mps 641 mmHg 20%
19:00 +23°C° 0 mm 6 mps 641 mmHg 26%
20:00 +22°C° 0 mm 5 mps 640 mmHg 33%
21:00 +20°C° 0 mm 3 mps 640 mmHg 40%
22:00 +19°C° 0 mm 3 mps 640 mmHg 45%
23:00 +17°C° 0 mm 2 mps 640 mmHg 50%

15 June, Tuesday

Time Temperature Precipitation Wind Pressure Humidity
00:00 +16°C° 0 mm 1 mps 640 mmHg 55%
01:00 +16°C° 0 mm 1 mps 640 mmHg 57%
02:00 +15°C° 0 mm 1 mps 639 mmHg 59%
03:00 +14°C° 0 mm 1 mps 639 mmHg 61%
04:00 +15°C° 0 mm 1 mps 639 mmHg 60%
05:00 +15°C° 0 mm 1 mps 640 mmHg 59%
06:00 +14°C° 0 mm 0 mps 640 mmHg 58%
07:00 +18°C° 0 mm 1 mps 641 mmHg 49%
08:00 +20°C° 0 mm 1 mps 641 mmHg 39%
09:00 +22°C° 0 mm 1 mps 642 mmHg 29%
10:00 +23°C° 0 mm 1 mps 642 mmHg 25%
11:00 +25°C° 0 mm 2 mps 642 mmHg 21%
12:00 +26°C° 0 mm 2 mps 643 mmHg 18%
13:00 +27°C° 0 mm 3 mps 642 mmHg 17%
14:00 +28°C° 0 mm 3 mps 642 mmHg 16%
15:00 +29°C° 0 mm 3 mps 642 mmHg 16%
16:00 +28°C° 0 mm 3 mps 642 mmHg 17%
17:00 +28°C° 0 mm 3 mps 642 mmHg 18%
18:00 +27°C° 0 mm 3 mps 641 mmHg 19%
19:00 +25°C° 0 mm 3 mps 641 mmHg 26%
20:00 +23°C° 0 mm 2 mps 641 mmHg 32%
21:00 +20°C° 0 mm 2 mps 640 mmHg 39%
22:00 +19°C° 0 mm 2 mps 640 mmHg 42%
23:00 +18°C° 0 mm 2 mps 640 mmHg 45%

16 June, Wednesday

Time Temperature Precipitation Wind Pressure Humidity
00:00 +17°C° 0 mm 2 mps 639 mmHg 48%
01:00 +17°C° 0 mm 2 mps 639 mmHg 49%
02:00 +16°C° 0 mm 1 mps 639 mmHg 49%
03:00 +15°C° 0 mm 1 mps 639 mmHg 50%
04:00 +15°C° 0 mm 1 mps 639 mmHg 50%
05:00 +16°C° 0 mm 1 mps 639 mmHg 50%
06:00 +15°C° 0 mm 0 mps 639 mmHg 51%
07:00 +19°C° 0 mm 1 mps 640 mmHg 43%
08:00 +21°C° 0 mm 1 mps 641 mmHg 36%
09:00 +23°C° 0 mm 1 mps 641 mmHg 29%
10:00 +24°C° 0 mm 2 mps 642 mmHg 25%
11:00 +26°C° 0 mm 2 mps 642 mmHg 21%
12:00 +27°C° 0 mm 3 mps 642 mmHg 18%
13:00 +28°C° 0 mm 3 mps 642 mmHg 16%
14:00 +28°C° 0 mm 4 mps 642 mmHg 15%
15:00 +29°C° 0 mm 5 mps 642 mmHg 14%
16:00 +28°C° 0 mm 5 mps 642 mmHg 16%
17:00 +27°C° 0 mm 5 mps 641 mmHg 19%
18:00 +26°C° 0 mm 5 mps 641 mmHg 21%
19:00 +23°C° 0 mm 4 mps 641 mmHg 28%
20:00 +21°C° 0 mm 3 mps 641 mmHg 35%
21:00 +19°C° 0 mm 3 mps 640 mmHg 42%
22:00 +18°C° 0 mm 2 mps 640 mmHg 46%
23:00 +17°C° 0 mm 2 mps 640 mmHg 49%

17 June, Thursday

Time Temperature Precipitation Wind Pressure Humidity
00:00 +16°C° 0 mm 2 mps 639 mmHg 53%
01:00 +15°C° 0 mm 2 mps 639 mmHg 56%
02:00 +14°C° 0 mm 2 mps 639 mmHg 59%
03:00 +14°C° 0 mm 2 mps 639 mmHg 62%
04:00 +14°C° 0 mm 2 mps 639 mmHg 60%
05:00 +14°C° 0 mm 2 mps 640 mmHg 58%
06:00 +14°C° 0 mm 2 mps 640 mmHg 57%
07:00 +14°C° 0 mm 3 mps 641 mmHg 51%
08:00 +17°C° 0 mm 3 mps 641 mmHg 46%
09:00 +19°C° 0 mm 3 mps 642 mmHg 41%
10:00 +20°C° 0 mm 3 mps 643 mmHg 37%
11:00 +22°C° 0 mm 3 mps 643 mmHg 33%
12:00 +24°C° 0 mm 3 mps 643 mmHg 29%
13:00 +25°C° 0 mm 4 mps 644 mmHg 27%
14:00 +26°C° 0 mm 5 mps 644 mmHg 25%
15:00 +27°C° 0 mm 5 mps 644 mmHg 23%
16:00 +26°C° 0 mm 6 mps 644 mmHg 26%
17:00 +26°C° 0 mm 7 mps 644 mmHg 28%
18:00 +24°C° 0 mm 8 mps 644 mmHg 30%
19:00 +22°C° 0 mm 7 mps 644 mmHg 35%
20:00 +20°C° 0 mm 5 mps 643 mmHg 41%
21:00 +18°C° 0 mm 4 mps 643 mmHg 47%
22:00 +17°C° 0 mm 4 mps 643 mmHg 50%
23:00 +17°C° 0 mm 4 mps 643 mmHg 53%
Show more

We Need Your Consent

Meteoprog and our Service Providers may store and access personal data such as cookies, device identifiers or other similar technologies on your device and process such data to personalise content and ads, as well as provide social media features and to analyse the traffic.

  • Store and/or access information on your device

    Cookies, device identifiers or other information can be stored or accessed on your device for the purposes indicated above.

  • Personalised ads and content, ad and content measurement, audience insights, and products development

    Ads and content can be personalised based on a profile. More data can be added to better personalise ads and content. Ad and content performance can be measured. Insights about the audience who saw the ads and content can be derived. Such data can be used to develop or improve user’s experience, systems and software.

By clicking ‘I Agree’ you will allow the use of indicated cookies, device identifiers, web beacons or other similar technologies. Your settings can be changed in the browser on your device.

For certain purposes, legitimate interests may be relied on, rather than consent. You can read more about this in our Privacy and Cookie Policy.